Regional Weather Roundup
Issued by NWS

Home | Current Version | Previous Version | Text Only | Print | Product List | Glossary Off
Versions: 1 2 3 4 5 6 7 8 9 10 11 12 13 14 15 16 17 18 19 20 21 22 23 24 25 26 27 28 29 30 31 32 33 34 35 36 37 38 39 40 41 42 43 44 45 46 47 48 49 50

000
ASUS43 KOAX 291310
RWRNE

WEATHER ROUNDUP FOR NEBRASKA
NATIONAL WEATHER SERVICE OMAHA NE
800 AM CDT SAT APR 29 2017

NOTES: SATELLITE DATA IS BEING USED TO AUGMENT CLOUD COVER ABOVE
       12000 FEET.
       "FAIR" INDICATES FEW OR NO CLOUDS BELOW 12,000 FEET WITH NO
       SIGNIFICANT WEATHER AND/OR OBSTRUCTIONS TO VISIBILITY.

  * THESE STATIONS DO NOT REPORT WEATHER SUCH AS RAIN...SNOW OR FOG.

NEZ001>004-019>022-054>056-291400-
NEBRASKA PANHANDLE

CITY           SKY/WX    TMP DP  RH WIND       PRES   REMARKS
SCOTTSBLUFF    CLOUDY    33  26  75 N10       30.21R WCI  25
ALLIANCE       CLOUDY    32  28  85 N8        30.20R WCI  25
CHADRON        CLOUDY    31  29  92 SW6       30.26R WCI  25
KIMBALL        CLOUDY    32  30  93 N5        30.19R WCI  27
SIDNEY         CLOUDY    33  29  85 N10       30.19R WCI  25
$$

NEZ057>060-069>072-079>082-291400-
SOUTHWEST NEBRASKA

CITY           SKY/WX    TMP DP  RH WIND       PRES   REMARKS
NORTH PLATTE   CLOUDY    38  28  67 NE13      30.17R WCI  30
IMPERIAL       CLOUDY    37  29  72 NE15      30.14R WCI  28
LEXINGTON      CLOUDY    40  29  66 NE16G26   30.14F WCI  31
MCCOOK         MIX PCPN  35  34  96 NE18      30.12F FOG     WCI  24
OGALLALA       CLOUDY    38  28  69 NE13      30.18R WCI  30
$$

NEZ005>010-023>029-035>040-094-291400-
NORTH CENTRAL NEBRASKA

CITY           SKY/WX    TMP DP  RH WIND       PRES   REMARKS
VALENTINE      CLOUDY    40  20  44 NE8       30.24R WCI  34
AINSWORTH      CLOUDY    37  26  63 NE8       30.22R WCI  31
BROKEN BOW     CLOUDY    39  27  62 NE12      30.19R WCI  32
O`NEILL        CLOUDY    38  25  57 NE9       30.21S WCI  32
ORD            CLOUDY    39  27  62 NE12      30.18R WCI  32
THEDFORD       CLOUDY    38  26  60 NE9       30.22R WCI  32
$$

NEZ041-046>049-061>064-073>077-083>087-291400-
SOUTH CENTRAL NEBRASKA

CITY           SKY/WX    TMP DP  RH WIND       PRES   REMARKS
GRAND ISLAND   CLOUDY    39  36  89 N14       30.14R WCI  31
AURORA         CLOUDY    40  36  84 NE17G24   30.10R WCI  31
HASTINGS       CLOUDY    40  34  79 N17       30.12R WCI  31
HEBRON         RAIN      40  37  90 NE13      30.04F WCI  32
HOLDREGE       DRIZZLE   37  33  85 NE21      30.11F WCI  27
KEARNEY *      CLOUDY    39  30  70 NE14      30.13F WCI  31
YORK           LGT RAIN  39  37  93 NE16      30.09F WCI  30
$$

NEZ011>018-030>034-042>045-291400-
NORTHEAST NEBRASKA

CITY           SKY/WX    TMP DP  RH WIND       PRES   REMARKS
NORFOLK        PTSUNNY   39  28  64 N10       30.17R WCI  32
ALBION         PTSUNNY   40  29  65 N8        30.18S WCI  35
BLAIR          CLOUDY    42  35  75 NE12G21   30.10R
FREMONT        CLOUDY    42  34  75 NE7       30.13R
TEKAMAH        PTSUNNY   42  33  70 NE14      30.15R
WAYNE          CLOUDY    39  31  73 N8        30.20R WCI  34
$$

NEZ050>053-065>068-078-088>093-291400-
SOUTHEAST NEBRASKA

CITY           SKY/WX    TMP DP  RH WIND       PRES   REMARKS
LINCOLN        LGT RAIN  41  37  86 N12       30.10R
OMAHA EPPLEY   LGT RAIN  44  34  67 NE13G20   30.10F
BEATRICE       LGT RAIN  41  38  89 NE13G20   30.04F
FALLS CITY     CLOUDY    44  39  82 NE12G22   29.98F
NEBRASKA CITY  CLOUDY    43  34  71 NE18G28   30.04R
PLATTSMOUTH    CLOUDY    43  33  68 NE14      30.08R
$$

NEZ044-045-051>053-067-291400-
OMAHA AREA

CITY           SKY/WX    TMP DP  RH WIND       PRES   REMARKS
OMAHA EPPLEY   LGT RAIN  44  34  67 NE13G20   30.10F
BLAIR          CLOUDY    42  35  75 NE12G21   30.10R
FREMONT        CLOUDY    42  34  75 NE7       30.13R
MILLARD        CLOUDY    45  36  70 NE5       30.11R
OFFUTT AFB     CLOUDY    43  35  72 NE13G20   30.09R
PLATTSMOUTH    CLOUDY    43  33  68 NE14      30.08R
WAHOO          CLOUDY    42  35  75 N14       30.11R
$$



USA.gov is the U.S. government's official web portal to all federal, state and local government web resources and services.